1487718001.02,20231,11.25,72414.8,-10.57,-11.23,-11.23,0,*61
1487718002.24,20232,11.25,72406.5,-10.57,-11.23,-11.23,0,*62
1487718003.46,20233,11.25,72404.8,-10.57,-11.23,-11.23,0,*63
1487718004.71,20234,11.25,72416.5,-10.57,-11.23,-11.29,0,*6E
1487718005.93,20235,11.25,72428.3,-10.57,-11.23,-11.23,0,*65
1487718007.21,20236,11.25,72396.8,-10.59,-11.33,-11.33,0,*68
1487718008.49,20237,11.25,72408.5,-10.57,-11.29,-11.29,0,*67
1487718009.76,20238,11.25,72414.0,-10.57,-11.29,-11.29,0,*68
1487718011.04,20239,11.25,72432.3,-10.57,-11.29,-11.29,0,*69
1487718012.31,20240,11.25,72424.5,-10.57,-11.29,-11.29,0,*67
1487718013.61,20241,11.25,72426.8,-10.59,-11.29,-11.29,0,*68
1487718014.9,20242,11.25,72438.0,-10.55,-11.29,-11.37,0,*68
1487718016.17,20243,11.25,72434.5,-10.57,-11.29,-11.37,0,*6B
1487718017.42,20244,11.25,72442.0,-10.57,-11.23,-11.29,0,*69
1487718018.63,20245,11.25,72432.5,-10.57,-11.23,-11.23,0,*62
1487718019.85,20246,11.25,72418.8,-10.57,-11.11,-11.23,0,*60
1487718021.07,20247,11.25,72410.8,-10.57,-11.23,-11.23,0,*60
1487718022.29,20248,11.25,72404.3,-10.57,-11.23,-11.23,0,*6F
1487718023.51,20249,11.25,72400.3,-10.57,-11.23,-11.15,0,*6B
1487718024.73,20250,11.25,72402.0,-10.57,-11.15,-11.15,0,*66
1487718025.97,20251,11.25,72402.5,-10.55,-11.15,-11.15,0,*65
1487718027.21,20252,11.25,72406.8,-10.55,-11.15,-11.15,0,*66
1487718028.45,20253,11.25,72408.0,-10.55,-11.15,-11.11,0,*63
1487718029.69,20254,11.25,72410.8,-10.55,-11.15,-11.23,0,*65
1487718030.93,20255,11.25,72414.5,-10.55,-11.23,-11.23,0,*61
1487718032.15,20256,11.25,72416.0,-10.57,-11.23,-11.23,0,*60
1487718033.37,20257,11.25,72424.5,-10.57,-11.23,-11.23,0,*61
1487718034.59,20258,11.25,72438.5,-10.57,-11.23,-11.23,0,*6E
1487718035.8,20259,11.25,72444.5,-10.57,-11.15,-11.11,0,*6B
1487718037.04,20260,11.25,72446.3,-10.55,-11.15,-11.11,0,*63
1487718038.28,20261,11.25,72444.5,-10.55,-11.15,-11.11,0,*62
1487718039.52,20262,11.25,72448.3,-10.55,-11.23,-11.15,0,*60
1487718040.76,20263,11.25,72450.8,-10.55,-11.15,-11.15,0,*64
1487718042.0,20264,11.25,72450.8,-10.55,-11.15,-11.23,0,*66
1487718043.24,20265,11.25,72452.0,-10.55,-11.15,-11.23,0,*67
1487718044.48,20266,11.25,72448.8,-10.55,-11.15,-11.11,0,*65
1487718045.72,20267,11.25,72458.3,-10.55,-11.11,-11.15,0,*64
1487718046.96,20268,11.25,72456.3,-10.55,-11.23,-11.15,0,*6A
1487718048.2,20269,11.25,72458.0,-10.55,-11.15,-11.15,0,*6E
1487718049.44,20270,11.25,72458.5,-10.55,-11.15,-11.11,0,*62
1487718050.68,20271,11.25,72462.8,-10.55,-11.15,-11.11,0,*63
1487718051.92,20272,11.25,72460.3,-10.55,-11.15,-11.15,0,*64
1487718053.17,20273,11.25,72458.5,-10.55,-11.23,-11.15,0,*60
1487718054.41,20274,11.25,72456.5,-10.55,-11.15,-11.15,0,*62
1487718055.64,20275,11.25,72462.8,-10.55,-11.15,-11.15,0,*63
1487718056.86,20276,11.25,72466.5,-10.53,-11.11,-11.19,0,*6E
1487718058.1,20277,11.25,72466.3,-10.55,-11.15,-11.15,0,*61
1487718059.34,20278,11.25,72472.0,-10.55,-11.15,-11.15,0,*6E
1487718060.56,20279,11.25,72472.5,-10.53,-11.15,-11.15,0,*69
1487718061.77,20280,11.25,72476.8,-10.53,-11.15,-11.23,0,*6A
1487718063.02,20281,11.25,72472.8,-10.55,-11.23,-11.23,0,*68
1487718064.26,20282,11.25,72474.8,-10.55,-11.23,-11.23,0,*6B
1487718065.5,20283,11.25,72474.5,-10.55,-11.23,-11.23,0,*6A
1487718066.72,20284,11.25,72474.0,-10.53,-11.23,-11.19,0,*62
1487718067.99,20285,11.25,72474.0,-10.55,-11.29,-11.23,0,*66
1487718069.26,20286,11.25,72474.0,-10.55,-11.29,-11.23,0,*65
1487718070.47,20287,11.25,72474.5,-10.53,-11.19,-11.19,0,*68
1487718071.68,20288,11.25,72474.0,-10.53,-11.19,-11.23,0,*6E
1487718072.95,20289,11.25,72476.3,-10.55,-11.23,-11.29,0,*6A
1487718074.16,20290,11.25,72474.5,-10.53,-11.19,-11.19,0,*6E
1487718075.41,20291,11.25,72478.8,-10.55,-11.23,-11.23,0,*69
1487718076.62,20292,11.25,72476.0,-10.53,-11.19,-11.19,0,*6C
1487718077.89,20293,11.25,72480.8,-10.55,-11.29,-11.15,0,*64
1487718079.1,20294,11.25,72482.8,-10.53,-11.19,-11.23,0,*63
1487718080.37,20295,11.25,72484.5,-10.55,-11.29,-11.15,0,*62
1487718081.61,20296,11.25,72486.5,-10.55,-11.15,-11.11,0,*6A
1487718082.83,20297,11.25,72486.8,-10.53,-11.11,-11.11,0,*69
1487718084.07,20298,11.25,72480.3,-10.55,-11.15,-11.11,0,*64
1487718085.28,20299,11.25,72482.3,-10.53,-11.19,-11.19,0,*67
1487718086.52,20300,11.25,72484.5,-10.55,-11.23,-11.15,0,*65
1487718087.76,20301,11.25,72480.8,-10.55,-11.15,-11.15,0,*61
1487718089.0,20302,11.25,72484.5,-10.55,-11.15,-11.15,0,*62
1487718090.24,20303,11.25,72488.0,-10.55,-11.15,-11.15,0,*63
1487718091.45,20304,11.25,72490.8,-10.53,-11.19,-11.11,0,*6A
1487718092.69,20305,11.25,72492.3,-10.55,-11.23,-11.15,0,*60
1487718093.93,20306,11.25,72496.3,-10.55,-11.15,-11.23,0,*63
1487718095.18,20307,11.25,72496.8,-10.53,-11.19,-11.07,0,*6E
1487718096.42,20308,11.25,72492.3,-10.55,-11.15,-11.15,0,*68
1487718097.63,20309,11.25,72492.5,-10.53,-11.11,-11.11,0,*6F
1487718098.87,20310,11.25,72486.3,-10.55,-11.23,-11.23,0,*61
1487718100.09,20311,11.25,72476.8,-10.53,-11.19,-11.19,0,*66
1487718101.3,20312,11.25,72474.8,-10.53,-11.23,-11.19,0,*6C
1487718102.55,20313,11.25,72468.5,-10.55,-11.23,-11.23,0,*62
1487718103.76,20314,11.25,72462.5,-10.53,-11.23,-11.23,0,*63
1487718105.06,20315,11.25,72442.8,-10.55,-11.29,-11.29,0,*64
1487718106.27,20316,11.25,72412.5,-10.53,-11.19,-11.19,0,*61
1487718107.49,20317,11.25,72398.8,-10.53,-11.23,-11.19,0,*69
1487718108.71,20318,11.25,72368.8,-10.53,-11.23,-11.23,0,*6F
1487718110.01,20319,11.25,72362.5,-10.55,-11.29,-11.29,0,*68
1487718111.22,20320,11.25,72364.0,-10.53,-11.19,-11.23,0,*6D
1487718112.43,20321,11.25,72358.0,-10.53,-11.19,-11.23,0,*6C
1487718113.64,20322,11.25,72342.8,-10.53,-11.19,-11.23,0,*6F
1487718114.86,20323,11.25,72402.3,-10.53,-11.11,-11.11,0,*67
1487718116.08,20324,11.25,72408.8,-10.53,-11.11,-11.11,0,*60
1487718117.29,20325,11.25,72406.3,-10.53,-11.11,-11.11,0,*61
1487718118.53,20326,11.25,72422.5,-10.55,-11.15,-11.15,0,*64
1487718119.8,20327,11.25,72442.8,-10.55,-11.15,-11.07,0,*66
1487718121.05,20328,11.25,72436.8,-10.53,-11.07,-11.11,0,*6B
1487718122.26,20329,11.25,72448.3,-10.53,-11.11,-11.11,0,*6D
1487718123.48,20330,11.25,72440.5,-10.53,-11.11,-11.11,0,*65
1487718124.69,20331,11.25,72444.5,-10.53,-11.11,-11.11,0,*64
1487718125.94,20332,11.25,72446.8,-10.53,-11.11,-11.07,0,*60
1487718127.18,20333,11.25,72442.5,-10.55,-11.15,-11.15,0,*60
1487718128.39,20334,11.25,72450.5,-10.53,-11.11,-11.11,0,*61
1487718129.61,20335,11.25,72436.3,-10.53,-11.23,-11.11,0,*61
1487718130.86,20336,11.25,72430.5,-10.53,-11.29,-11.19,0,*60
1487718132.1,20337,11.25,72420.5,-10.55,-11.23,-11.23,0,*64
1487718133.37,20338,11.25,72408.3,-10.55,-11.29,-11.23,0,*61
1487718134.64,20339,11.25,72406.8,-10.55,-11.29,-11.23,0,*60
1487718135.85,20340,11.25,72404.5,-10.53,-11.19,-11.23,0,*6B
1487718137.07,20341,11.25,72400.3,-10.53,-11.23,-11.19,0,*6A
1487718138.31,20342,11.25,72398.8,-10.55,-11.23,-11.23,0,*66
1487718139.53,20343,11.25,72392.0,-10.53,-11.23,-11.23,0,*61
1487718140.74,20344,11.25,72398.5,-10.53,-11.19,-11.23,0,*6F
1487718142.01,20345,11.25,72398.8,-10.55,-11.29,-11.23,0,*6B
1487718143.26,20346,11.25,72396.8,-10.55,-11.23,-11.23,0,*62
1487718144.47,20347,11.25,72400.0,-10.53,-11.19,-11.19,0,*65
1487718145.69,20348,11.25,72406.5,-10.53,-11.23,-11.11,0,*6B
1487718146.96,20349,11.25,72414.0,-10.55,-11.29,-11.19,0,*6E
1487718148.17,20350,11.25,72408.8,-10.53,-11.23,-11.19,0,*6A
1487718149.44,20351,11.25,72416.0,-10.55,-11.29,-11.23,0,*6E
1487718150.66,20352,11.25,72422.5,-10.53,-11.23,-11.19,0,*68
1487718151.87,20353,11.25,72432.8,-10.53,-11.19,-11.19,0,*60
1487718153.09,20354,11.25,72442.0,-10.53,-11.11,-11.19,0,*6F
1487718154.3,20355,11.25,72446.8,-10.53,-11.11,-11.19,0,*6E
1487718155.52,20356,11.25,72454.5,-10.53,-11.19,-11.19,0,*65
1487718156.76,20357,11.25,72460.8,-10.55,-11.23,-11.23,0,*62
1487718158.0,20358,11.25,72462.3,-10.55,-11.23,-11.23,0,*6D
1487718159.22,20359,11.25,72448.3,-10.53,-11.23,-11.23,0,*6A
1487718160.47,20360,11.25,72448.3,-10.53,-11.23,-11.29,0,*6A
1487718161.71,20361,11.25,72450.0,-10.53,-11.33,-11.23,0,*60
1487718162.98,20362,11.25,72448.5,-10.55,-11.23,-11.29,0,*6E
1487718164.19,20363,11.25,72462.3,-10.53,-11.23,-11.19,0,*6A
1487718165.41,20364,11.25,72452.8,-10.53,-11.23,-11.19,0,*6D
1487718166.62,20365,11.25,72440.0,-10.53,-11.19,-11.19,0,*65
1487718167.84,20366,11.25,72438.0,-10.53,-11.23,-11.23,0,*66
1487718169.06,20367,11.25,72416.3,-10.53,-11.23,-11.23,0,*67
1487718170.3,20368,11.25,72406.0,-10.53,-11.23,-11.33,0,*69
1487718171.52,20369,11.25,72396.5,-10.53,-11.23,-11.23,0,*69
1487718172.78,20370,11.25,72388.5,-10.53,-11.37,-11.33,0,*65
1487718174.0,20371,11.25,72392.3,-10.53,-11.23,-11.23,0,*60
1487718175.27,20372,11.25,72394.5,-10.55,-11.23,-11.29,0,*6F
1487718176.48,20373,11.25,72402.5,-10.53,-11.19,-11.19,0,*62
1487718177.69,20374,11.25,72408.8,-10.53,-11.19,-11.11,0,*6D
1487718178.93,20375,11.25,72410.8,-10.55,-11.23,-11.15,0,*67
1487718180.15,20376,11.25,72412.0,-10.53,-11.19,-11.19,0,*67
1487718181.36,20377,11.25,72420.8,-10.53,-11.19,-11.23,0,*6F
1487718182.57,20378,11.25,72418.5,-10.53,-11.19,-11.19,0,*69
1487718183.81,20379,11.25,72426.5,-10.55,-11.23,-11.15,0,*6B
1487718185.03,20380,11.25,72430.3,-10.53,-11.19,-11.11,0,*66
1487718186.27,20381,11.25,72434.5,-10.53,-11.11,-11.07,0,*68
1487718187.52,20382,11.25,72446.8,-10.53,-11.11,-11.07,0,*6B
1487718188.76,20383,11.25,72454.3,-10.55,-11.15,-11.15,0,*6B
1487718189.97,20384,11.25,72452.3,-10.53,-11.11,-11.11,0,*6A
1487718191.22,20385,11.25,72456.0,-10.53,-11.11,-11.07,0,*6C
1487718192.46,20386,11.25,72456.0,-10.53,-11.07,-11.11,0,*6F
1487718193.68,20387,11.25,72462.3,-10.53,-11.11,-11.11,0,*69
1487718194.91,20388,11.25,72456.8,-10.51,-11.19,-11.11,0,*6C
1487718196.13,20389,11.25,72468.0,-10.53,-11.11,-11.19,0,*6F
1487718197.34,20390,11.25,72462.3,-10.53,-11.11,-11.11,0,*6F
1487718198.62,20391,11.25,72470.5,-10.49,-11.07,-11.07,0,*65
1487718199.83,20392,11.25,72476.8,-10.53,-11.19,-11.11,0,*65
1487718201.07,20393,11.25,72488.0,-10.55,-11.15,-11.15,0,*6A
1487718202.28,20394,11.25,72488.3,-10.53,-11.11,-11.11,0,*6B
1487718203.5,20395,11.25,72498.3,-10.53,-11.11,-11.11,0,*6A
1487718204.71,20396,11.25,72500.0,-10.53,-11.11,-11.11,0,*69
1487718205.93,20397,11.25,72494.5,-10.53,-11.19,-11.11,0,*60
1487718207.14,20398,11.25,72500.3,-10.53,-11.19,-11.11,0,*6F
1487718208.35,20399,11.25,72498.3,-10.53,-11.19,-11.19,0,*66
1487718209.59,20400,11.19,72492.8,-10.51,-11.23,-11.19,0,*6A
1487718210.81,20401,11.25,72496.5,-10.53,-11.19,-11.23,0,*69
1487718212.02,20402,11.25,72494.3,-10.53,-11.23,-11.19,0,*6A
1487718213.24,20403,11.25,72494.3,-10.53,-11.19,-11.23,0,*6B
1487718214.45,20404,11.25,72496.8,-10.53,-11.11,-11.19,0,*6D
1487718215.66,20405,11.25,72496.0,-10.53,-11.19,-11.19,0,*64
1487718216.88,20406,11.25,72494.0,-10.53,-11.11,-11.11,0,*67
1487718218.15,20407,11.25,72496.0,-10.51,-11.07,-11.11,0,*63
1487718219.42,20408,11.25,72496.5,-10.53,-11.07,-11.07,0,*69
1487718220.64,20409,11.25,72498.3,-10.53,-11.11,-11.11,0,*68
1487718221.85,20410,11.25,72500.3,-10.53,-11.11,-11.11,0,*60
1487718223.07,20411,11.25,72500.8,-10.53,-11.11,-11.11,0,*61
1487718224.31,20412,11.25,72502.0,-10.53,-11.11,-11.07,0,*65
1487718225.55,20413,11.25,72504.8,-10.51,-11.11,-11.11,0,*61
1487718226.85,20414,11.25,72502.5,-10.51,-11.07,-11.07,0,*66
1487718228.09,20415,11.25,72498.5,-10.49,-11.07,-11.01,0,*68
1487718229.36,20416,11.25,72496.5,-10.51,-11.11,-11.07,0,*63
1487718230.66,20417,11.25,72504.5,-10.51,-11.07,-11.07,0,*65
1487718231.96,20418,11.25,72508.8,-10.51,-11.07,-11.07,0,*6A
1487718233.2,20419,11.25,72510.8,-10.53,-11.11,-11.07,0,*6E
1487718234.45,20420,11.25,72514.8,-10.49,-11.01,-11.07,0,*6E
1487718235.69,20421,11.25,72516.5,-10.51,-11.11,-11.11,0,*60
1487718236.96,20422,11.25,72526.3,-10.51,-11.11,-11.07,0,*64
1487718238.25,20423,11.25,72526.5,-10.51,-11.07,-11.07,0,*62
1487718239.5,20424,11.25,72528.0,-10.49,-11.01,-11.07,0,*6A
1487718240.71,20425,11.25,72524.3,-10.49,-11.11,-11.11,0,*6D
1487718241.98,20426,11.25,72520.0,-10.51,-11.07,-11.11,0,*60
1487718243.23,20427,11.19,72508.8,-10.49,-11.07,-11.01,0,*69
1487718244.46,20428,11.25,72510.0,-10.51,-11.11,-11.11,0,*69
1487718245.7,20429,11.25,72500.0,-10.51,-11.11,-11.11,0,*68
1487718246.97,20430,11.25,72494.8,-10.51,-11.11,-11.07,0,*67
1487718248.24,20431,11.25,72470.5,-10.51,-11.11,-11.07,0,*66
1487718249.48,20432,11.25,72456.0,-10.51,-11.19,-11.11,0,*6A
1487718250.71,20433,11.25,72452.5,-10.51,-11.19,-11.11,0,*6B
1487718251.93,20434,11.25,72446.5,-10.49,-11.15,-11.15,0,*6D
1487718253.16,20435,11.25,72444.8,-10.51,-11.11,-11.19,0,*6D
1487718254.43,20436,11.25,72448.8,-10.51,-11.07,-11.11,0,*61
1487718255.7,20437,11.25,72454.5,-10.51,-11.11,-11.07,0,*60
1487718256.94,20438,11.25,72458.0,-10.51,-11.11,-11.11,0,*68
1487718258.21,20439,11.25,72458.0,-10.51,-11.11,-11.07,0,*6E
1487718259.45,20440,11.25,72462.8,-10.51,-11.11,-11.11,0,*67
1487718260.72,20441,11.25,72470.5,-10.49,-11.07,-11.07,0,*6F
1487718261.96,20442,11.25,72472.5,-10.51,-11.11,-11.19,0,*6D
1487718263.19,20443,11.25,72476.8,-10.51,-11.11,-11.11,0,*64
1487718264.44,20444,11.25,72476.8,-10.49,-11.01,-11.07,0,*6C
1487718265.68,20445,11.25,72470.0,-10.51,-11.19,-11.19,0,*62
1487718266.94,20446,11.25,72460.8,-10.51,-11.07,-11.11,0,*66
1487718268.16,20447,11.25,72458.0,-10.49,-11.01,-11.01,0,*69
1487718269.43,20448,11.19,72452.3,-10.49,-11.07,-11.07,0,*66
1487718270.71,20449,11.19,72458.5,-10.49,-11.07,-11.07,0,*67
1487718271.97,20450,11.19,72452.3,-10.51,-11.07,-11.19,0,*69
1487718273.24,20451,11.19,72454.8,-10.51,-11.11,-11.07,0,*60
1487718274.49,20452,11.25,72458.8,-10.49,-11.15,-11.07,0,*6E
1487718275.75,20453,11.19,72452.5,-10.51,-11.11,-11.07,0,*62
1487718277.05,20454,11.25,72460.5,-10.51,-11.07,-11.07,0,*62
1487718278.27,20455,11.25,72466.3,-10.49,-11.01,-11.01,0,*6A
1487718279.54,20456,11.25,72474.3,-10.51,-11.11,-11.07,0,*67
1487718280.84,20457,11.25,72478.5,-10.51,-11.07,-11.07,0,*61
1487718282.11,20458,11.25,72472.5,-10.49,-11.07,-11.07,0,*67
1487718283.38,20459,11.25,72472.3,-10.49,-11.07,-11.07,0,*66
1487718284.65,20460,11.25,72476.5,-10.49,-11.07,-11.07,0,*6C
1487718285.92,20461,11.19,72474.5,-10.49,-11.07,-11.07,0,*6D
1487718287.19,20462,11.25,72470.8,-10.49,-11.07,-11.07,0,*6E
1487718288.46,20463,11.19,72478.5,-10.49,-11.07,-11.07,0,*6F
1487718289.71,20464,11.19,72476.8,-10.49,-11.01,-11.07,0,*6E
1487718290.98,20465,11.25,72486.5,-10.49,-11.07,-11.07,0,*69
1487718292.25,20466,11.19,72498.0,-10.49,-11.07,-11.07,0,*6A
1487718293.47,20467,11.19,72496.5,-10.49,-11.01,-11.01,0,*6B
1487718294.72,20468,11.25,72498.8,-10.49,-11.07,-11.01,0,*62
1487718295.99,20469,11.19,72494.0,-10.49,-11.07,-11.07,0,*65
1487718297.26,20470,11.25,72466.5,-10.49,-11.07,-11.07,0,*6D
1487718298.53,20471,11.25,72476.8,-10.49,-11.07,-11.07,0,*6C
1487718299.8,20472,11.25,72434.0,-10.49,-11.07,-11.07,0,*6F
1487718301.05,20473,11.25,72416.5,-10.49,-11.07,-11.01,0,*68
1487718302.34,20474,11.25,72418.8,-10.47,-11.07,-11.07,0,*67
1487718303.6,20475,11.19,72426.5,-10.47,-11.07,-11.01,0,*60
1487718304.87,20476,11.19,72412.0,-10.49,-11.07,-11.07,0,*6B
1487718306.14,20477,11.25,72396.8,-10.49,-11.07,-11.07,0,*6A
1487718307.36,20478,11.19,72384.0,-10.49,-11.01,-11.01,0,*65
1487718308.66,20479,11.25,72406.0,-10.47,-11.07,-11.07,0,*6A
1487718309.9,20480,11.25,72414.8,-10.47,-11.01,-11.01,0,*6C
1487718311.17,20481,11.25,72438.0,-10.49,-11.07,-11.07,0,*63
1487718312.44,20482,11.19,72452.3,-10.51,-11.11,-11.07,0,*6E
1487718313.73,20483,11.25,72464.5,-10.47,-11.07,-11.07,0,*6F
1487718315.0,20484,11.25,72444.8,-10.49,-11.07,-11.07,0,*66
1487718316.27,20485,11.25,72464.0,-10.49,-11.07,-11.07,0,*67
1487718317.51,20486,11.25,72476.8,-10.49,-11.07,-11.01,0,*62
1487718318.76,20487,11.25,72476.5,-10.49,-11.07,-11.01,0,*63
1487718320.03,20488,11.25,72486.3,-10.49,-11.07,-11.07,0,*6A
1487718321.3,20489,11.19,72462.0,-10.49,-11.07,-11.07,0,*6B
1487718322.54,20490,11.19,72450.5,-10.49,-11.15,-11.07,0,*60
1487718323.78,20491,11.19,72462.5,-10.49,-11.15,-11.07,0,*61
1487718325.03,20492,11.25,72474.8,-10.49,-11.07,-11.19,0,*6E
1487718326.26,20493,11.19,72474.3,-10.47,-11.15,-11.19,0,*62
1487718327.5,20494,11.19,72478.3,-10.49,-11.15,-11.07,0,*64
1487718328.76,20495,11.25,72454.8,-10.47,-11.15,-11.07,0,*6B
1487718330.0,20496,11.25,72450.3,-10.47,-11.15,-11.15,0,*6B
1487718331.23,20497,11.25,72452.3,-10.47,-11.15,-11.19,0,*66
1487718332.44,20498,11.19,72452.0,-10.49,-11.15,-11.15,0,*6B
1487718333.68,20499,11.25,72440.5,-10.47,-11.19,-11.15,0,*68
1487718334.91,20500,11.19,72458.0,-10.47,-11.15,-11.15,0,*65
1487718336.14,20501,11.25,72466.3,-10.47,-11.19,-11.15,0,*68
1487718337.37,20502,11.25,72444.5,-10.47,-11.15,-11.15,0,*67
1487718338.6,20503,11.25,72442.8,-10.47,-11.19,-11.19,0,*66
1487718339.83,20504,11.25,72422.0,-10.47,-11.19,-11.19,0,*61
1487718341.04,20505,11.19,72412.8,-10.45,-11.19,-11.15,0,*6E
1487718342.27,20506,11.19,72432.5,-10.47,-11.15,-11.19,0,*6F
1487718343.49,20507,11.19,72436.5,-10.49,-11.15,-11.19,0,*60
1487718344.7,20508,11.19,72436.3,-10.49,-11.15,-11.19,0,*6F
1487718345.91,20509,11.25,72442.3,-10.49,-11.15,-11.15,0,*62
1487718347.13,20510,11.25,72442.3,-10.49,-11.15,-11.15,0,*6A
1487718348.37,20511,11.25,72438.0,-10.49,-11.15,-11.07,0,*68
1487718349.64,20512,11.19,72434.8,-10.49,-11.07,-11.07,0,*68
1487718350.91,20513,11.25,72428.8,-10.47,-11.01,-11.07,0,*61
1487718352.2,20514,11.19,72422.3,-10.47,-11.07,-11.07,0,*60
1487718353.49,20515,11.25,72420.8,-10.47,-11.07,-11.07,0,*61
1487718354.73,20516,11.19,72424.5,-10.47,-11.15,-11.01,0,*67
1487718356.02,20517,11.25,72434.0,-10.47,-11.07,-11.07,0,*63
1487718357.28,20518,11.19,72430.5,-10.47,-11.07,-11.01,0,*6A
1487718358.55,20519,11.19,72430.3,-10.47,-11.01,-11.07,0,*6B
1487718359.81,20520,11.19,72426.8,-10.47,-11.07,-11.01,0,*61
1487718361.05,20521,11.19,72428.0,-10.47,-11.15,-11.01,0,*63
1487718362.31,20522,11.19,72430.3,-10.47,-11.15,-11.07,0,*66
1487718363.53,20523,11.25,72434.8,-10.45,-10.97,-11.01,0,*68
1487718364.82,20524,11.19,72432.3,-10.47,-11.07,-11.07,0,*63
1487718366.11,20525,11.19,72436.8,-10.47,-11.07,-11.07,0,*62
1487718367.38,20526,11.25,72436.8,-10.47,-11.07,-11.01,0,*67
1487718368.64,20527,11.19,72440.3,-10.47,-11.07,-11.01,0,*66
1487718369.9,20528,11.25,72444.0,-10.47,-11.07,-11.15,0,*6C
1487718371.14,20529,11.19,72440.8,-10.47,-11.15,-11.15,0,*6E
1487718372.4,20530,11.19,72440.0,-10.47,-11.07,-11.15,0,*65
1487718373.66,20531,11.25,72440.3,-10.47,-11.07,-11.15,0,*64
1487718374.93,20532,11.19,72440.5,-10.47,-11.01,-11.07,0,*62
1487718376.22,20533,11.25,72450.8,-10.47,-11.07,-11.07,0,*65
1487718377.44,20534,11.19,72448.5,-10.45,-11.01,-11.01,0,*60
1487718378.73,20535,11.25,72454.0,-10.47,-11.07,-11.07,0,*63
1487718380.02,20536,11.19,72452.3,-10.47,-11.07,-11.07,0,*60
1487718381.28,20537,11.25,72454.3,-10.47,-11.19,-11.07,0,*6E
1487718382.49,20538,11.19,72446.0,-10.45,-11.11,-11.15,0,*68
1487718383.71,20539,11.19,72446.3,-10.45,-11.01,-11.01,0,*6D
1487718384.94,20540,11.25,72446.3,-10.45,-10.97,-10.97,0,*63
1487718386.2,20541,11.25,72446.5,-10.47,-11.15,-11.07,0,*63
1487718387.42,20542,11.25,72442.3,-10.45,-11.01,-11.01,0,*61
1487718388.64,20543,11.25,72444.3,-10.45,-10.97,-11.01,0,*6E
1487718389.88,20544,11.19,72438.8,-10.47,-11.15,-11.01,0,*60
1487718391.14,20545,11.19,72438.5,-10.47,-11.07,-11.01,0,*62
1487718392.4,20546,11.25,72436.8,-10.47,-11.07,-11.01,0,*61
1487718393.62,20547,11.25,72438.3,-10.45,-11.01,-11.01,0,*64
1487718394.89,20548,11.25,72436.3,-10.47,-11.07,-11.01,0,*6F
1487718396.18,20549,11.25,72430.3,-10.47,-11.07,-11.07,0,*68
1487718397.41,20550,11.19,72422.0,-10.47,-11.15,-11.15,0,*60
1487718398.68,20551,11.25,72416.5,-10.47,-11.15,-11.07,0,*62
1487718399.91,20552,11.25,72402.3,-10.47,-11.01,-11.15,0,*67
1487718401.15,20553,11.19,72392.3,-10.47,-11.15,-11.15,0,*63
1487718402.36,20554,11.25,72396.0,-10.45,-11.11,-11.11,0,*66
1487718403.6,20555,11.25,72398.8,-10.45,-11.15,-11.07,0,*64
1487718404.83,20556,11.19,72400.0,-10.45,-11.01,-10.97,0,*6A
1487718406.04,20557,11.19,72414.0,-10.45,-11.01,-11.01,0,*65
1487718407.31,20558,11.19,72416.3,-10.47,-11.07,-11.01,0,*6E
1487718408.57,20559,11.19,72416.3,-10.47,-11.07,-11.01,0,*6F
1487718409.8,20560,11.19,72416.0,-10.45,-10.97,-10.97,0,*61
1487718411.02,20561,11.19,72416.5,-10.45,-11.01,-10.97,0,*6E
1487718412.24,20562,11.19,72420.8,-10.45,-10.97,-10.97,0,*63
1487718413.49,20563,11.25,72426.0,-10.45,-11.01,-11.07,0,*64
1487718414.71,20564,11.19,72430.8,-10.45,-11.01,-11.01,0,*65
1487718415.93,20565,11.19,72438.0,-10.45,-11.01,-11.01,0,*64
1487718417.14,20566,11.19,72440.0,-10.45,-10.89,-11.01,0,*66
1487718418.41,20567,11.25,72452.5,-10.47,-11.01,-11.07,0,*62
1487718419.68,20568,11.25,72452.0,-10.47,-11.07,-11.01,0,*6D
1487718420.9,20569,11.25,72452.0,-10.45,-10.97,-10.97,0,*68
1487718422.14,20570,11.19,72452.5,-10.47,-11.01,-11.01,0,*62
1487718423.36,20571,11.19,72454.0,-10.45,-11.01,-10.97,0,*6F
1487718424.58,20572,11.19,72454.5,-10.45,-10.97,-11.01,0,*6C
1487718425.81,20573,11.19,72458.5,-10.45,-11.01,-10.97,0,*6D
1487718427.03,20574,11.19,72456.3,-10.45,-10.97,-10.97,0,*64
1487718428.25,20575,11.19,72458.3,-10.45,-11.01,-11.01,0,*65
1487718429.48,20576,11.19,72450.3,-10.45,-10.97,-10.97,0,*66
1487718430.74,20577,11.19,72436.5,-10.47,-11.01,-11.07,0,*63
1487718431.97,20578,11.25,72430.8,-10.45,-10.97,-10.97,0,*68
1487718433.19,20579,11.19,72426.5,-10.45,-10.97,-11.01,0,*67
1487718434.41,20580,11.19,72424.5,-10.45,-11.01,-11.01,0,*6F
1487718435.63,20581,11.19,72418.5,-10.45,-11.01,-10.97,0,*60
1487718436.85,20582,11.19,72414.5,-10.45,-11.01,-10.97,0,*63
1487718438.08,20583,11.19,72422.8,-10.43,-11.01,-11.01,0,*6A
1487718439.3,20584,11.19,72424.8,-10.43,-11.01,-11.01,0,*6D
1487718440.52,20585,11.19,72424.0,-10.45,-11.01,-11.01,0,*6A
1487718441.74,20586,11.19,72416.3,-10.45,-11.01,-11.01,0,*69
1487718442.96,20587,11.19,72418.5,-10.45,-11.01,-11.01,0,*68
1487718444.18,20588,11.19,72402.0,-10.45,-11.01,-11.01,0,*67
1487718445.42,20589,11.19,72424.8,-10.47,-11.15,-11.01,0,*61
1487718446.64,20590,11.19,72428.3,-10.43,-11.01,-11.01,0,*68
1487718447.87,20591,11.25,72434.0,-10.43,-10.97,-11.01,0,*67
1487718449.09,20592,11.25,72458.8,-10.43,-11.01,-11.11,0,*6B
1487718450.31,20593,11.19,72472.3,-10.43,-11.01,-11.01,0,*6B
1487718451.54,20594,11.19,72480.5,-10.43,-11.01,-11.01,0,*6C
1487718452.77,20595,11.19,72474.5,-10.43,-11.01,-11.01,0,*6D
1487718453.98,20596,11.19,72462.0,-10.45,-11.01,-11.01,0,*68
1487718455.21,20597,11.19,72446.0,-10.43,-11.01,-11.01,0,*6F
1487718456.43,20598,11.19,72440.3,-10.43,-11.11,-11.01,0,*61
1487718457.65,20599,11.25,72450.3,-10.43,-11.15,-11.01,0,*64
1487718458.87,20600,11.19,72442.3,-10.43,-11.11,-11.01,0,*63
1487718460.09,20601,11.19,72432.5,-10.45,-11.01,-11.01,0,*65
1487718461.3,20602,11.19,72442.8,-10.45,-11.11,-11.01,0,*67
1487718462.52,20603,11.19,72462.3,-10.45,-11.15,-11.01,0,*62
1487718463.73,20604,11.19,72454.0,-10.45,-11.15,-11.11,0,*64
1487718464.94,20605,11.19,72470.0,-10.45,-11.11,-11.11,0,*61
1487718466.16,20606,11.19,72452.8,-10.43,-11.11,-11.11,0,*64
1487718467.38,20607,11.19,72466.8,-10.43,-11.15,-11.11,0,*61
1487718468.59,20608,11.19,72442.5,-10.43,-11.11,-11.11,0,*6A
1487718469.81,20609,11.19,72444.5,-10.43,-11.15,-11.15,0,*6B
1487718471.03,20610,11.19,72436.5,-10.43,-11.11,-11.11,0,*63
1487718472.25,20611,11.19,72442.0,-10.43,-11.15,-11.15,0,*62
1487718473.47,20612,11.19,72428.5,-10.43,-11.11,-11.15,0,*65
1487718474.68,20613,11.25,72430.5,-10.43,-11.11,-11.11,0,*60
1487718475.9,20614,11.19,72426.0,-10.43,-11.11,-11.11,0,*67
1487718477.12,20615,11.25,72424.3,-10.43,-11.15,-11.15,0,*66
1487718478.34,20616,11.19,72400.0,-10.43,-11.11,-11.11,0,*65
1487718479.56,20617,11.19,72406.0,-10.43,-11.11,-11.15,0,*60
1487718480.77,20618,11.25,72404.0,-10.43,-11.11,-11.15,0,*6F
1487718481.99,20619,11.25,72404.3,-10.43,-11.15,-11.15,0,*6A
1487718483.2,20620,11.19,72416.5,-10.45,-11.11,-11.11,0,*66
1487718484.42,20621,11.19,72394.3,-10.43,-11.11,-11.11,0,*61
1487718485.64,20622,11.19,72378.8,-10.43,-11.11,-11.15,0,*66
1487718486.86,20623,11.19,72340.8,-10.43,-11.11,-11.11,0,*63
1487718488.07,20624,11.19,72370.5,-10.43,-11.15,-11.15,0,*64